Location: Bergnershof
(48.9468°N, 10.9431°E)
Time: 22:09:37
(UTC+00:00)

Daily predictions for brighter satellites

Satellite Brightness Start Highest point End
(mag) Time Altitude Azimuth Time Altitude Azimuth Time Altitude Azimuth
BREEZE-M DEB (TANK) 4.3 17:01:28 10° SSW 17:05:30 44° SE 17:19:05 10° ENE
Cosmos 1674 3.8 17:16:08 10° NNW 17:19:46 50° W 17:23:21 10° S
Cosmos 1975 4.1 17:21:16 10° SSW 17:25:11 47° WNW 17:29:07 10° N
COSMO-SKYMED 1 2.5 17:21:00 10° NNE 17:25:22 68° ESE 17:29:40 10° S
Cosmos 2263 Rocket 2.2 17:19:47 10° NNW 17:25:32 82° ENE 17:31:14 10° SSE
Cosmos 1437 Rocket 3.9 17:27:41 10° SE 17:30:30 20° E 17:33:19 10° NE
Spot 1 4.3 17:26:48 10° NNE 17:30:50 44° E 17:34:44 10° S
ASTEX 1 3.4 17:26:19 10° N 17:31:18 69° E 17:36:17 10° S
HJ-1C 3.9 17:29:43 10° SE 17:32:32 32° ENE 17:35:22 10° N
Cosmos 1741 Rocket 4.0 17:27:59 10° SSW 17:33:15 75° ESE 17:38:31 10° NNE
CZ-4C R/B 4.3 17:30:20 10° N 17:34:31 55° WNW 17:38:30 10° SSW
USA 267 3.4 17:29:25 10° SE 17:36:00 79° SW 17:42:36 10° WNW
Cosmos 1626 4.2 17:33:01 10° NNW 17:36:16 31° W 17:39:30 10° SSW
Cosmos 1814 Rocket 4.0 17:31:47 10° NNW 17:37:01 65° ENE 17:42:10 10° SE
SL-4 R/B 2.4 17:33:17 10° WNW 17:37:40 72° SSW 17:42:18 10° ESE
Cosmos 2084 Rocket 4.0 17:36:45 10° NNW 17:40:18 36° NE 17:43:23 13° ESE
Cosmos 1805 3.3 17:38:01 10° S 17:41:54 83° WNW 17:45:49 10° N
Cosmos 2227 4.2 17:37:13 10° NNW 17:42:51 70° ENE 17:48:26 10° SE
Cosmos 1242 Rocket 3.2 17:39:42 10° SSW 17:43:13 57° WNW 17:46:42 10° N
IRIDIUM 114 4.4 17:39:48 10° SSE 17:44:51 54° E 17:49:57 10° NNE
Okean-O 4.0 17:42:55 13° ESE 17:45:32 20° ENE 17:48:47 10° NNE
ISS -1.8 17:44:33 10° W 17:47:25 25° SW 17:50:15 10° SSE
CZ-4 R/B 1.7 17:44:07 10° SE 17:48:07 46° ENE 17:52:07 10° N
Cosmos 1697 Rocket 4.0 17:43:15 10° WSW 17:48:33 42° NW 17:53:56 10° NNE
BREEZE M DEB (TANK) 3.9 17:45:08 10° SSW 17:50:59 24° SSE 17:53:03 15° ESE
Meteor 1-12 Rocket 4.5 17:45:13 10° S 17:51:02 54° E 17:56:53 10° NNE
Cosmos 1908 Rocket 3.7 17:49:25 10° SSE 17:53:34 47° E 17:57:44 10° NNE
SL-14 R/B 3.8 17:49:43 10° NNW 17:53:39 62° W 17:57:36 10° S
OBJECT-B 1.9 17:54:14 17° ENE 17:54:14 17° ENE 17:55:46 10° NNE
IRIDIUM 103 4.3 17:48:50 10° S 17:53:58 65° E 17:59:09 10° N
Meteor 2-21 4.4 17:48:09 10° S 17:54:09 74° E 18:00:12 10° NNE
MOS 1-B 4.4 17:48:22 10° SSE 17:54:11 87° WSW 18:00:03 10° NNW
Cosmos 1733 4.1 17:51:48 10° SSW 17:55:27 51° WNW 17:59:07 10° N
Cosmos 2360 Rocket 3.4 17:51:59 10° SE 17:55:50 19° E 17:59:41 10° ENE
Cosmos 1766 3.1 17:57:49 10° S 18:01:44 80° E 18:05:42 10° NNE
Cosmos 1782 Rocket 4.2 17:57:58 10° SSE 18:01:50 32° E 18:05:44 10° NNE
Cosmos 1674 Rocket 4.0 17:58:30 10° NNW 18:02:54 65° W 18:07:17 10° S
Meteor 2-10 4.4 17:57:45 10° SSW 18:03:23 76° WNW 18:08:51 10° N
NOSS 7 (E) 4.4 18:01:36 10° NW 18:04:49 84° NE 18:07:50 16° SE
Cosmos 1025 Rocket 3.7 18:01:39 10° N 18:05:34 33° ENE 18:07:56 19° ESE
YAOGAN 1 2.6 18:02:03 10° SSE 18:06:22 84° WSW 18:10:44 10° NNW
ATLAS 2AS CENTAUR R/B 4.4 18:01:45 10° NW 18:07:45 25° N 18:13:29 10° NE
Cosmos 2026 Rocket 4.3 18:02:18 10° SSE 18:07:52 40° E 18:13:29 10° NNE
Cosmos 968 Rocket 3.5 18:03:23 10° S 18:08:30 55° ESE 18:13:37 10° NNE
Okean O Rocket 1.5 18:05:50 10° SSE 18:10:12 89° ENE 18:14:38 10° NNW
IRIDIUM 106 4.3 18:07:02 10° S 18:12:15 90° WSW 18:17:31 10° N
Lacrosse 4 Rocket 2.2 18:09:51 10° S 18:13:19 27° ESE 18:13:56 26° E
Meteor 2-5 Rocket 3.6 18:09:47 10° N 18:15:19 68° ENE 18:20:50 10° SSE
Nadezhda 4 Rocket 4.0 18:09:20 10° S 18:15:41 88° E 18:22:02 10° N
Meteor 1-15 Rocket 4.1 18:11:53 10° S 18:17:26 73° E 18:22:59 10° NNE
CSL-04 Rocket 4.0 18:13:27 16° SE 18:17:28 46° ENE 18:22:38 10° N
Cosmos 2285 Rocket 4.3 18:15:34 10° NNW 18:21:55 73° WSW 18:28:16 10° SSE
USA 186 2.2 18:22:41 39° ESE 18:23:17 44° ENE 18:26:31 10° N
Cosmos 1726 3.5 18:20:31 10° SSW 18:23:59 41° WNW 18:27:29 10° N
Cosmos 2322 Rocket 2.4 18:18:59 10° S 18:24:23 46° ESE 18:29:49 10° NE
Cosmos 2237 4.4 18:19:32 10° S 18:24:58 48° ESE 18:30:26 10° NE
Landsat 7 4.4 18:25:23 29° ESE 18:26:48 36° ENE 18:31:08 10° N
Cosmos 1470 2.6 18:24:45 10° S 18:28:33 66° E 18:32:22 10° NNE
CZ-4B R/B 4.0 18:23:33 10° S 18:28:48 53° W 18:34:12 10° NNW
Cosmos 1980 Rocket 3.6 18:25:25 10° WSW 18:30:41 40° NW 18:35:58 10° NNE
Cosmos 1975 Rocket 3.0 18:26:20 10° N 18:30:43 60° ENE 18:33:09 25° SSE
CRYOSAT 2 4.3 18:34:18 15° SSE 18:38:20 64° E 18:43:12 10° N
Cosmos 2292 Rocket 3.6 18:33:41 10° SSW 18:38:47 79° W 18:42:39 10° N
USA 215 3.7 18:36:54 12° NE 18:42:54 61° NNW 18:49:19 10° W
IRS-1C Rocket 4.0 18:43:42 29° SE 18:46:21 67° ENE 18:51:36 10° N
Cosmos 1844 Rocket 2.6 18:44:37 10° NNW 18:50:21 83° ENE 18:52:59 34° SSE
SL-16 R/B 2.2 18:48:57 10° SSW 18:54:37 82° WNW 19:00:20 10° NNE
Landsat 5 3.5 18:50:50 10° NNE 18:55:21 80° ESE 18:59:47 10° SSW
Cosmos 1943 Rocket 4.4 18:55:02 10° NNE 18:56:00 10° NNE 18:56:59 10° NE
Cosmos 1092 Rocket 4.1 18:50:54 10° SSW 18:57:13 81° W 19:03:30 10° N
Resurs 01 Rocket 2.5 19:01:19 35° NE 19:01:19 35° NE 19:04:34 10° N
Cosmos 836 Rocket 4.4 18:56:19 10° NNW 19:01:40 89° WSW 19:03:34 41° SSE
SJ-6B 2.9 19:02:07 53° SSW 19:02:49 66° WSW 19:06:37 10° NNW
Cosmos 2278 Rocket 3.6 19:00:59 10° N 19:05:26 23° NE 19:05:41 23° NE
H-2A R/B 3.4 19:07:12 34° NNE 19:07:12 34° NNE 19:09:38 10° N
Cosmos 1437 Rocket 4.4 19:03:03 10° SW 19:06:27 32° WNW 19:09:52 10° N
Meteor 1-24 Rocket 4.4 19:05:25 10° NNW 19:10:32 50° W 19:15:42 10° SSW
Resurs 1-3 3.5 19:11:26 70° S 19:11:54 84° WSW 19:16:19 10° NNW
IRS-1A Rocket 4.4 19:15:25 52° ENE 19:15:39 53° ENE 19:21:17 10° N
MetOp-A 4.2 19:17:19 40° N 19:17:19 40° N 19:20:01 10° N
SL-4 R/B 4.2 19:13:16 10° W 19:16:43 21° SW 19:17:51 19° SSW
Cosmos 921 Rocket 4.3 19:12:42 10° N 19:15:35 31° NNE 19:15:35 31° NNE
Okean-O 3.2 19:20:29 41° SSW 19:21:38 55° W 19:26:01 10° NNW
CZ-4 R/B 4.0 19:20:12 10° SW 19:23:16 20° W 19:26:21 10° NW
OBJECT-B 3.7 19:24:56 13° WNW 19:24:56 13° WNW 19:25:33 10° NW
Cosmos 1486 Rocket 3.9 19:18:36 10° SSW 19:23:56 87° WNW 19:29:19 10° NNE
Cosmos 1844 3.9 19:19:18 10° NNW 19:24:48 66° WSW 19:26:12 48° S
IGS 5A 4.5 19:24:37 36° SW 19:25:36 43° W 19:29:34 10° NNW
Cosmos 2266 Rocket 4.5 19:26:59 44° ENE 19:26:59 44° ENE 19:31:53 10° NNE
DNEPR-1 R/B 4.0 19:23:34 10° SW 19:28:21 80° NW 19:30:36 37° NNE
S3M 3.8 19:23:33 10° N 19:29:48 70° ENE 19:30:10 68° ESE
Cosmos 1300 Rocket 4.1 19:30:15 46° WSW 19:31:07 55° WNW 19:35:25 10° N
Cosmos 773 Rocket 4.0 19:25:57 10° NNW 19:31:00 75° NNE 19:31:00 75° NNE
Meteor 1-21 Rocket 4.2 19:26:23 10° N 19:31:34 67° NE 19:31:34 67° NE
Cosmos 2360 Rocket 2.2 19:33:31 10° SSW 19:39:10 78° WNW 19:44:51 10° NNE
Lacrosse 4 Rocket 3.2 19:47:55 10° WSW 19:50:17 28° W 19:50:17 28° W
ATLAS 2AS CENTAUR R/B 3.7 19:54:17 10° NW 20:00:52 35° NNE 20:01:35 34° NE
SPOT 1/Viking Rocket 4.3 20:07:53 49° WNW 20:07:53 49° WNW 20:12:04 10° NNW
Cosmos 2322 Rocket 3.6 20:03:19 10° WSW 20:08:34 37° NW 20:13:51 10° NNE
NOSS 3-4 (A) 3.7 20:05:24 10° NW 20:12:04 84° N 20:12:04 84° N
NOSS 3-4 (C) 3.7 20:05:30 10° NW 20:12:10 84° N 20:12:10 84° N
Ariane Rocket 4.2 20:16:25 39° NNW 20:16:25 39° NNW 20:19:38 10° NNW
USA 215 4.0 20:24:15 41° NNE 20:25:21 44° N 20:31:28 10° WNW
USA 281 3.7 20:27:40 50° N 20:27:40 50° N 20:32:44 10° NNW
Resurs 01 Rocket 4.1 20:38:52 20° WNW 20:38:52 20° WNW 20:40:45 10° NW
Terra 4.2 20:42:43 17° N 20:42:43 17° N 20:43:52 10° N
Cosmos 1943 Rocket 4.1 20:36:36 10° NNW 20:38:59 22° N 20:38:59 22° N
Cosmos 2278 Rocket 3.7 20:44:32 10° NNW 20:47:32 33° NNW 20:47:32 33° NNW
Cosmos 2369 Rocket 4.4 20:56:39 10° N 20:58:48 18° N 20:58:48 18° N
Cosmos 2333 Rocket 4.4 21:18:31 20° N 21:18:31 20° N 21:20:35 10° NNE
ATLAS 2AS CENTAUR R/B 4.2 21:45:29 10° NW 21:49:00 31° NW 21:49:00 31° NW
